Theta_e
311 315 316 317 316 316 314 312 314 318 318 319 321 323 323 321 319 316 317 314 308 313 319 315 316 318 316 313 306 303 304 303 301 301 300 300 300 299 300 300 301 302 303 304 305 306 307 307 308 308 308 308 308 308 308 309 309 310 311 312 313 316 318 319 319 320 320 319 319 319 319 320 320 319 318 319 319 320 320 320 320 320 320 320 321 321
311 316 317 316 314 314 314 312 311 314 315 314 316 317 318 319 317 314 314 314 308 312 318 314 314 317 315 310 304 302 303 302 300 300 299 299 298 298 299 299 300 301 301 303 304 305 306 307 307 306 306 307 307 307 307 307 307 308 309 309 310 312 313 313 314 314 315 315 315 315 316 317 317 316 317 317 317 317 318 318 317 317 317 318 319 319
314 316 316 313 310 311 313 313 311 312 312 313 315 314 316 317 317 317 314 312 310 312 318 317 315 317 314 306 302 300 301 300 299 299 299 298 298 298 299 299 300 300 302 303 304 305 305 305 306 306 306 306 306 306 306 306 306 306 307 307 307 307 308 308 308 308 308 308 309 310 311 311 312 312 312 312 312 312 312 312 312 313 313 313 315 316
318 320 315 309 309 312 315 314 313 313 312 314 315 315 318 316 317 322 318 314 313 311 315 317 314 317 314 306 302 300 299 299 298 299 298 298 299 298 299 299 300 301 302 303 304 304 305 305 305 305 305 305 305 305 305 305 305 305 305 305 305 305 305 306 306 306 306 306 306 306 307 307 307 307 306 306 307 306 306 306 306 306 306 307 308 308
320 319 310 308 312 314 315 315 314 314 315 317 317 316 317 317 318 321 318 315 317 314 313 313 316 322 319 312 308 302 299 299 298 298 298 298 298 298 299 299 300 301 302 302 303 304 304 304 304 304 304 304 304 304 304 304 304 303 304 304 304 304 304 304 304 304 305 305 305 305 306 305 305 305 304 305 304 304 304 304 304 303 303 303 303 304
318 313 310 313 316 313 314 317 317 316 317 320 321 318 317 319 319 318 316 315 319 321 315 311 320 330 325 318 311 304 302 301 299 298 297 297 298 298 299 299 300 301 301 302 303 304 304 304 304 304 304 304 304 304 303 303 303 303 303 303 303 303 303 303 303 303 303 303 304 304 304 304 304 304 303 303 303 303 303 303 303 303 303 303 303 303
316 312 312 318 318 315 316 317 318 317 318 321 320 318 315 315 316 316 315 316 321 323 313 309 317 327 328 323 312 304 305 303 299 298 297 297 298 298 299 299 299 300 301 302 303 303 303 303 303 303 303 303 303 303 303 302 302 302 303 303 303 303 302 302 302 302 302 302 302 303 303 303 303 303 302 302 302 302 302 302 302 302 303 302 302 302
316 314 314 316 317 318 318 319 318 315 320 323 318 317 318 316 317 318 317 317 320 319 316 315 315 317 323 321 308 304 307 304 301 300 298 297 298 298 298 299 299 300 300 301 302 302 303 303 303 303 303 303 303 303 302 302 302 302 302 302 302 302 302 302 302 302 302 302 302 302 302 302 302 301 301 300 300 300 300 301 301 301 301 301 301 301
313 316 317 316 317 317 318 321 318 314 321 322 314 314 318 318 319 320 318 318 316 314 320 323 316 315 323 320 307 303 308 307 304 303 300 297 297 298 298 299 299 299 300 301 301 302 302 302 303 303 303 302 302 302 302 302 302 302 301 302 301 301 301 301 301 301 301 301 301 301 301 301 301 300 300 299 299 299 299 300 299 299 299 299 299 299
311 312 313 315 319 319 319 317 313 315 319 313 308 312 315 315 318 319 320 320 315 314 322 325 318 316 324 324 313 307 311 311 307 303 300 298 297 298 298 298 299 299 300 300 301 302 302 302 302 302 302 302 302 302 302 301 301 301 301 301 301 301 301 301 300 300 300 300 300 300 300 300 299 299 298 298 298 298 298 298 298 297 297 297 297 296
310 307 308 312 315 314 314 310 305 310 311 306 311 318 317 317 318 319 320 318 315 319 323 321 317 315 320 324 319 312 313 312 308 304 300 298 297 298 298 298 298 299 299 300 301 301 302 302 302 302 302 301 301 301 301 301 300 300 300 300 300 300 300 300 299 299 299 299 299 299 299 299 298 297 297 297 297 296 296 296 296 295 295 295 294 294
311 311 310 310 309 308 312 310 305 305 305 308 320 322 318 320 317 318 321 318 318 325 322 314 313 313 317 324 322 314 311 308 306 305 301 298 297 298 298 298 298 299 299 300 301 301 301 302 301 301 301 301 301 301 301 300 300 300 300 299 299 299 299 299 298 299 299 298 299 298 298 298 297 297 297 297 296 295 295 295 294 293 293 293 293 293
315 317 312 309 308 309 316 317 310 307 308 313 321 320 320 322 319 320 322 318 319 321 315 311 313 313 315 320 318 315 311 304 302 302 300 298 298 298 298 298 298 298 299 300 301 301 301 301 301 301 301 301 300 300 300 300 300 299 299 299 299 299 298 298 298 298 298 298 298 297 297 297 296 296 296 295 295 294 294 293 293 293 293 292 292 292
319 318 312 311 311 309 315 318 316 315 313 314 318 320 322 322 322 324 321 316 318 317 310 309 312 314 316 316 314 313 307 300 299 300 300 299 299 299 299 298 298 298 299 300 300 301 301 301 301 301 301 300 300 300 299 299 299 299 298 298 298 298 297 297 297 297 297 297 297 296 296 296 295 295 295 295 294 293 293 293 292 292 292 291 291 291
321 322 317 316 314 311 313 315 318 319 313 312 316 317 320 323 325 325 322 321 322 319 312 308 312 320 321 313 306 303 299 296 298 300 300 300 299 299 298 297 298 298 299 299 300 301 301 301 301 300 300 300 300 299 299 299 298 298 298 298 298 297 297 296 296 296 296 296 296 295 295 295 294 294 294 293 293 292 292 292 292 292 291 291 291 290
317 322 319 312 309 311 313 310 312 316 315 312 312 315 317 321 323 319 316 318 318 317 315 312 315 321 316 307 299 298 297 296 298 298 299 299 298 298 298 297 298 299 299 299 299 300 301 300 301 300 300 299 299 299 298 298 298 297 297 297 297 297 296 296 296 296 295 295 295 294 294 294 293 293 292 292 292 292 292 291 291 291 291 291 291 291
316 321 316 309 308 308 309 309 308 312 317 313 311 317 317 313 319 320 313 310 311 316 318 315 317 318 312 308 302 298 299 298 297 297 297 298 297 297 297 297 298 299 299 299 300 300 300 300 300 300 299 299 299 298 298 297 297 296 296 296 296 296 295 295 295 294 294 294 293 293 293 292 292 292 292 291 291 291 291 291 290 290 290 290 290 290
320 323 316 311 313 308 304 307 307 305 312 316 315 318 314 310 316 320 317 316 315 318 319 315 316 318 316 315 307 301 304 303 298 296 296 296 296 296 297 298 298 299 298 299 299 299 300 300 300 299 299 298 298 297 297 297 296 296 296 295 295 294 294 294 293 293 292 292 292 292 291 291 291 291 290 290 290 290 290 290 290 290 289 289 289 289
318 322 317 310 312 310 305 310 311 306 307 313 314 312 312 316 318 317 317 321 319 319 321 317 314 314 316 317 312 309 313 310 301 297 296 295 295 296 297 298 298 298 298 298 298 299 300 299 299 299 298 298 297 297 296 296 296 295 295 294 294 293 293 292 292 291 291 291 291 290 290 290 290 290 290 290 290 290 290 289 289 289 289 289 289 288
314 319 320 310 309 311 310 312 317 314 307 307 309 308 311 316 318 318 316 318 319 319 321 319 316 315 315 316 317 316 316 310 301 298 297 296 296 296 297 297 297 298 298 298 299 299 299 299 299 298 298 298 297 296 296 295 295 295 294 293 292 292 291 291 290 290 290 290 290 290 290 290 290 290 290 290 290 289 289 289 289 288 288 288 288 288
313 315 319 313 308 311 315 314 316 316 312 311 312 312 313 313 314 316 314 314 318 321 322 321 317 317 316 313 315 316 313 305 301 299 298 296 296 297 297 298 298 298 299 300 300 300 299 299 298 298 297 296 296 296 295 294 294 293 292 292 291 290 290 290 290 289 289 290 290 290 290 290 290 290 289 289 289 289 288 288 288 288 288 287 287 287
315 315 320 317 312 315 318 314 310 312 313 313 313 314 314 314 314 316 315 313 316 317 321 321 317 318 316 308 309 313 309 302 299 299 297 297 297 297 297 298 299 299 300 301 300 300 299 299 298 297 297 296 296 295 294 293 293 292 291 291 290 290 290 289 289 289 289 290 290 290 290 290 289 289 289 289 289 288 288 288 288 288 287 287 287 287
314 316 320 319 317 316 315 309 305 308 310 311 313 315 315 314 315 318 316 315 315 313 314 316 316 317 312 304 304 305 303 300 299 298 297 297 297 298 298 299 299 300 301 301 300 300 299 299 297 297 297 297 296 295 293 292 292 291 290 290 290 289 290 290 290 290 290 290 290 290 290 289 289 289 289 289 289 288 288 288 288 288 287 287 287 287
312 316 318 318 318 315 312 309 306 306 310 313 314 314 314 315 315 316 315 315 316 315 313 314 316 315 309 301 298 298 298 299 299 299 299 298 298 298 298 299 300 300 300 300 299 299 298 297 296 296 297 296 295 295 293 292 291 291 290 290 290 290 290 290 290 290 290 290 290 290 290 290 289 289 289 289 289 288 288 288 288 287 287 287 287 287
314 319 319 318 320 318 314 313 311 310 311 315 316 314 313 316 315 313 313 314 315 315 315 315 315 316 311 302 299 299 298 298 297 298 299 298 298 298 298 299 300 299 299 299 299 298 297 296 296 296 297 296 296 295 293 292 291 290 290 290 290 290 290 290 290 290 290 290 290 290 290 289 289 289 289 289 288 288 288 288 287 287 287 287 286 286
317 320 318 317 319 319 319 318 316 316 315 314 315 314 312 313 314 313 314 314 314 315 314 314 315 315 311 306 305 304 302 301 299 298 298 299 299 300 300 299 299 299 299 300 299 298 297 296 296 296 296 295 296 295 294 292 291 290 290 290 289 290 290 290 290 290 290 290 290 290 289 289 289 289 288 288 288 288 288 287 287 287 287 286 286 286
317 318 317 317 318 318 319 318 315 316 317 315 315 315 314 312 312 313 314 314 314 314 313 314 314 315 314 310 308 306 305 306 303 298 298 299 300 301 300 299 299 300 301 301 300 298 297 297 297 296 295 295 296 296 294 292 290 290 289 289 289 290 290 290 290 290 290 290 289 289 289 289 289 289 288 288 288 288 288 287 287 287 287 286 286 286
318 317 316 317 317 316 316 315 313 315 316 316 316 316 315 314 312 312 312 314 314 313 314 314 313 314 315 312 310 309 307 306 301 298 299 301 302 301 300 300 300 300 301 300 298 298 298 298 297 295 295 295 296 295 293 291 290 289 289 289 290 290 290 290 290 290 290 289 289 289 289 289 289 289 288 288 288 288 288 287 287 287 286 286 285 285
317 317 316 316 315 315 314 312 314 315 314 314 315 315 315 314 311 310 310 312 313 313 314 313 312 313 313 312 312 309 306 304 302 301 302 303 302 301 300 300 300 300 300 299 299 299 299 299 298 297 296 296 296 295 293 290 289 289 289 290 290 290 290 290 290 290 289 289 289 289 289 289 289 288 288 288 288 288 287 287 287 287 286 285 285 284
314 316 315 314 315 315 312 309 310 312 312 312 312 312 312 311 309 308 309 310 310 311 311 310 310 310 309 310 310 307 303 302 302 302 302 302 301 302 302 301 301 300 300 300 300 301 301 299 298 298 297 295 296 295 293 290 289 289 289 290 290 291 290 290 290 290 289 289 289 289 289 289 288 288 288 288 288 287 287 287 287 286 285 285 284 284
311 314 312 311 314 313 308 306 307 308 309 311 311 310 309 308 307 306 307 308 308 309 309 307 307 308 306 305 305 304 302 302 302 302 302 302 302 303 303 302 302 302 302 302 302 302 302 301 300 298 297 296 296 295 293 290 289 289 290 291 291 290 290 290 290 290 289 289 289 289 289 288 288 288 288 288 287 287 287 286 286 285 285 285 284 284
310 311 309 310 315 313 307 304 305 304 304 306 309 308 307 308 308 306 305 307 308 308 308 307 308 309 305 301 301 302 301 300 301 302 302 302 302 303 303 303 303 303 302 302 302 301 301 300 300 299 298 296 296 295 292 290 289 290 290 291 291 290 290 290 290 290 290 289 289 289 288 288 288 288 288 288 287 287 286 286 285 285 284 284 283 283
309 310 310 310 315 312 304 302 303 304 306 309 309 308 306 306 306 304 304 305 305 306 308 307 307 307 304 301 302 303 300 297 299 301 301 301 301 301 301 301 301 301 300 300 299 299 299 299 299 299 299 298 297 295 292 290 289 290 291 291 291 290 290 290 290 290 289 289 288 288 288 288 288 288 288 287 287 287 286 285 285 284 284 284 283 283
307 310 310 310 313 308 299 300 304 306 311 311 308 308 308 306 305 305 305 305 303 303 305 305 305 304 303 302 303 303 300 298 298 300 300 299 299 299 299 299 299 299 299 299 298 298 298 298 298 298 299 298 296 294 291 289 289 290 291 292 291 291 290 290 290 289 288 288 288 288 288 288 288 288 288 287 287 286 285 285 284 284 283 283 283 283
307 308 308 308 309 304 299 302 307 310 310 305 300 301 303 303 304 304 303 303 302 302 302 302 302 302 300 299 299 299 298 297 297 298 298 297 297 298 298 298 298 298 298 298 298 297 297 297 297 297 298 297 296 293 291 290 290 291 291 292 291 291 290 290 289 289 288 288 288 288 288 288 288 288 287 287 287 286 285 284 284 283 283 283 283 283
307 307 306 306 305 301 301 305 309 309 305 300 296 296 297 299 300 300 300 300 299 299 299 300 301 300 297 296 297 296 296 296 296 296 296 297 297 297 298 298 298 298 298 297 296 296 296 295 296 296 297 296 295 293 291 290 291 291 292 292 291 291 290 289 289 288 288 288 288 288 287 287 287 287 287 287 286 285 284 284 283 283 282 282 282 283
305 306 306 307 305 304 303 305 307 307 305 303 301 297 296 298 300 300 301 302 300 297 296 297 299 298 296 295 296 295 295 295 296 297 297 297 297 297 297 297 297 296 296 295 295 295 295 295 295 295 295 295 294 293 292 292 292 292 292 292 291 290 289 289 289 288 288 288 288 287 287 287 287 287 287 286 286 285 284 283 283 282 282 282 282 283
303 305 307 309 307 305 304 304 305 306 307 308 304 298 296 296 298 298 300 302 302 297 294 296 299 298 295 294 294 294 294 296 297 297 296 296 296 296 296 295 295 294 294 294 294 294 294 295 294 294 293 293 292 292 292 292 292 292 291 291 290 290 289 289 289 288 288 288 288 287 287 287 287 287 287 286 285 284 283 283 282 282 282 282 282 282
301 303 305 307 306 304 305 306 306 306 308 308 303 296 293 294 296 297 298 301 300 295 293 296 298 296 294 293 293 293 295 298 298 297 295 295 295 294 294 293 293 293 293 293 293 294 294 293 293 292 292 291 291 291 291 291 291 291 290 290 290 289 289 289 288 288 288 288 287 287 287 287 287 287 286 286 285 283 283 282 282 282 282 282 282 282
301 302 303 304 306 305 305 305 305 305 305 303 297 292 291 294 297 298 300 302 298 292 292 295 295 295 295 293 292 293 296 298 298 296 295 294 293 292 292 292 292 292 292 292 293 293 293 292 292 292 291 291 291 291 291 291 291 290 290 290 289 289 289 289 288 288 288 287 287 287 287 287 287 286 286 285 284 283 282 282 282 281 281 282 282 282
299 301 301 303 304 305 305 305 304 304 303 298 293 292 292 295 297 299 301 302 296 291 293 295 295 295 296 293 292 294 296 296 296 295 294 293 292 292 292 292 292 292 291 292 292 292 292 292 292 291 291 291 291 291 290 290 290 290 290 289 289 289 288 288 288 288 287 287 287 286 286 287 286 286 285 284 283 282 282 281 281 281 281 281 282 281
300 300 300 302 303 303 304 304 303 303 301 295 291 291 293 296 300 300 299 298 295 293 294 295 295 295 295 294 294 295 295 295 295 294 293 292 292 292 292 292 292 292 291 292 292 292 292 292 292 291 291 291 291 290 290 290 290 290 289 289 289 288 288 288 288 287 287 287 286 286 286 286 286 286 285 284 282 282 281 281 281 281 281 281 281 281
301 301 300 300 302 301 301 302 302 303 300 294 292 293 294 297 300 299 295 294 294 295 295 295 295 295 295 295 295 295 294 294 294 293 292 292 292 292 292 292 292 292 291 291 292 292 292 292 291 291 291 291 291 290 290 290 289 289 289 289 288 288 288 288 287 287 287 286 286 286 286 286 286 285 284 283 282 281 281 281 280 281 281 281 281 281
300 301 300 300 301 301 300 302 302 300 296 293 295 296 296 296 297 296 294 294 294 294 294 294 295 294 294 294 294 294 294 294 293 293 293 292 292 292 292 292 292 292 292 291 292 292 292 292 291 291 291 291 290 290 290 290 289 289 289 289 288 288 288 287 287 287 286 286 286 286 286 286 285 285 283 282 281 281 280 280 280 280 280 280 280 280
299 299 299 300 300 299 299 300 297 294 293 294 296 297 296 296 296 295 295 295 294 294 294 294 294 294 294 294 294 293 293 293 293 293 293 292 293 292 292 292 292 292 292 291 291 292 291 291 291 291 291 291 290 290 290 289 289 289 289 289 288 288 288 287 287 286 286 285 286 286 286 286 285 284 282 281 281 280 280 280 280 280 280 280 279 279
293 291 293 296 298 296 295 295 293 291 292 294 295 296 296 296 296 295 295 295 295 295 294 294 294 294 294 294 293 293 293 293 293 293 293 292 292 292 292 292 292 292 292 292 291 291 291 291 291 291 291 290 290 290 290 289 289 289 289 288 288 288 287 287 287 286 286 285 286 286 286 286 284 283 281 281 280 280 279 279 280 280 279 279 279 279
291 290 292 295 296 296 295 293 292 292 293 293 295 296 295 295 295 295 295 295 295 295 294 294 294 294 293 293 293 293 293 293 292 292 292 292 292 292 292 292 292 292 292 292 291 291 291 291 291 291 291 290 290 290 290 289 289 289 289 288 288 288 287 287 287 286 285 285 285 285 286 285 284 282 281 280 280 279 279 279 279 279 279 279 278 278
293 292 293 294 294 295 294 291 290 291 293 293 295 295 295 295 295 294 294 295 294 294 294 294 294 293 293 293 293 293 293 292 292 292 292 292 292 292 292 292 292 292 291 292 291 291 291 291 291 291 290 290 290 290 290 289 289 289 288 288 288 288 287 287 286 286 285 285 285 285 285 284 283 281 280 280 279 279 279 279 279 279 279 278 278 278
293 293 294 293 293 293 292 289 289 291 292 292 294 294 294 294 295 294 294 294 294 294 294 293 293 293 293 293 293 293 292 292 292 292 292 292 292 292 292 292 292 291 291 291 291 291 291 290 290 290 290 290 290 290 290 289 289 288 288 288 288 288 287 287 286 285 285 285 285 285 284 283 282 281 280 280 279 279 278 278 278 278 278 278 277 277
292 293 293 292 293 293 292 290 291 293 293 293 293 294 294 294 294 294 294 294 293 293 293 293 293 293 293 293 293 292 292 292 292 292 292 292 292 292 292 292 291 291 291 291 291 291 290 290 290 290 290 290 290 289 289 289 288 288 288 288 288 288 287 287 286 285 285 285 284 284 284 282 281 280 280 279 279 279 278 278 278 278 278 278 277 277
291 293 293 292 293 294 292 292 292 293 293 293 293 294 294 293 294 293 293 293 293 293 293 293 293 293 292 292 292 292 292 292 292 292 292 292 292 292 291 291 291 291 291 291 291 290 290 290 290 290 290 290 289 289 289 288 288 288 288 288 288 288 287 286 285 285 284 284 284 284 283 281 280 280 279 279 279 279 278 278 277 277 277 277 277 276
Wind_Speed
5 3 3 6 6 8 10 10 8 4 6 5 4 4 4 5 5 4 4 5 1 1 5 5 5 8 6 3 6 5 8 10 10 9 9 9 9 10 11 12 12 12 12 9 8 8 9 9 10 11 12 13 13 14 14 13 13 13 12 12 12 12 10 8 8 7 5 5 5 5 4 5 5 3 1 2 3 3 2 3 5 6 7 7 7 8
4 4 8 9 7 8 8 8 5 3 4 3 4 3 3 4 6 5 3 5 1 2 5 2 3 8 4 2 5 4 7 7 6 7 8 8 10 11 12 13 13 13 13 12 12 13 15 16 17 19 20 20 22 22 22 22 22 21 20 19 18 16 13 12 11 9 8 8 7 6 6 4 2 2 1 2 3 3 4 6 7 8 9 9 9 9
2 5 11 8 6 5 2 4 6 5 4 2 3 2 4 3 4 6 3 4 2 2 4 3 3 7 1 4 5 7 7 6 6 7 7 9 10 12 13 14 15 16 17 18 20 21 22 23 24 24 25 26 27 27 27 27 27 27 27 26 25 23 21 20 19 17 16 15 13 12 11 8 6 7 6 4 4 3 3 3 4 5 6 7 8 10
3 6 10 7 9 7 2 3 6 4 3 3 3 3 4 2 0 3 3 4 2 1 1 2 3 6 1 4 5 7 8 10 9 8 9 9 11 12 14 15 17 19 22 23 25 26 26 26 26 26 27 27 27 27 28 28 28 29 29 29 28 27 26 24 23 22 20 18 17 16 15 13 12 13 11 8 8 7 7 6 6 6 6 6 5 6
7 6 2 6 7 7 4 3 6 5 2 3 5 6 4 3 5 6 3 4 3 3 1 3 3 6 3 1 1 4 6 8 8 9 9 9 10 12 13 16 18 20 23 25 26 27 27 27 26 27 27 26 26 26 26 26 26 27 28 27 27 26 25 24 23 22 20 18 17 17 16 15 15 14 12 11 12 12 11 10 11 11 11 9 9 8
8 6 3 5 3 5 6 4 5 7 3 4 5 9 9 7 7 5 3 5 3 4 3 2 2 5 4 2 3 2 2 4 4 7 8 7 9 11 13 16 18 20 23 25 27 27 27 26 26 26 25 25 25 25 24 24 24 24 25 25 24 24 24 23 22 20 18 17 16 15 15 14 13 12 13 14 15 14 13 13 12 12 12 11 10 10
5 3 3 4 4 5 5 4 6 7 5 2 4 8 9 7 4 3 2 2 0 3 2 2 2 4 6 4 3 3 2 3 2 4 5 6 8 11 13 16 17 20 22 24 26 26 26 25 24 24 24 24 24 23 22 21 21 21 22 22 22 22 22 20 19 17 15 14 14 13 13 12 12 13 15 16 14 14 14 12 11 11 11 11 11 11
3 1 2 4 5 5 5 5 6 8 7 3 4 5 6 6 6 5 5 4 2 3 4 3 2 2 4 4 2 3 3 1 0 0 1 5 8 10 13 15 17 19 21 24 25 25 24 23 23 23 22 22 22 21 19 18 18 18 19 20 19 19 19 18 16 14 13 12 12 12 12 13 14 15 16 14 13 13 11 10 10 11 11 11 11 11
2 3 3 6 4 5 6 4 7 10 5 4 3 6 6 6 6 5 6 3 1 1 4 4 1 2 5 4 2 2 2 3 4 5 5 7 10 12 14 16 18 19 21 23 24 24 23 22 21 21 20 20 19 18 17 17 16 16 16 17 17 17 17 16 13 12 12 12 12 12 12 13 14 14 13 12 10 10 9 9 10 10 10 11 11 11
1 2 4 7 5 5 4 1 6 8 3 4 6 7 5 5 5 4 5 4 2 1 5 6 3 2 4 4 2 1 4 6 6 5 6 10 12 13 16 17 18 19 21 22 23 23 22 21 20 19 18 17 17 16 15 15 15 14 13 13 14 15 15 13 11 10 10 11 10 11 11 12 13 12 10 8 8 9 8 8 9 10 11 11 12 12
1 1 1 4 4 4 4 3 1 2 4 8 7 6 6 6 5 3 2 4 2 2 6 6 4 3 3 5 3 4 4 5 7 5 6 10 14 16 18 19 19 19 21 22 22 22 21 19 18 17 16 15 15 14 13 12 12 12 11 10 12 14 12 10 10 8 8 9 8 10 10 10 10 10 7 6 7 8 8 9 11 11 11 11 12 13
3 0 1 2 4 5 7 5 4 3 3 6 4 4 4 3 4 4 4 3 1 5 5 3 2 4 4 5 4 5 4 4 7 7 9 13 17 21 22 21 20 20 21 22 22 21 20 19 17 15 14 13 13 12 11 10 10 10 9 8 10 11 10 9 8 7 7 7 7 8 8 7 8 6 5 6 7 8 9 11 11 11 11 11 12 12
3 4 2 0 4 6 6 4 4 4 3 4 4 5 4 2 2 2 3 1 3 5 3 1 2 3 5 6 5 6 5 4 4 6 12 19 23 25 25 23 22 22 22 22 22 21 19 18 16 14 13 12 11 10 9 9 8 7 8 7 8 9 9 8 7 6 6 6 7 8 7 7 8 7 8 9 10 11 12 12 13 13 13 14 14 15
3 5 1 2 3 7 8 5 2 1 1 4 5 5 4 2 1 2 3 2 4 4 2 1 1 1 4 4 4 5 4 4 6 7 14 24 29 29 28 25 23 23 22 22 22 21 19 17 15 14 12 11 10 9 8 7 6 6 6 5 5 6 7 6 6 5 5 6 7 7 7 8 8 8 9 10 11 12 13 14 15 16 16 17 18 18
3 4 4 5 2 8 9 6 6 5 4 4 3 5 4 4 4 4 4 3 4 2 2 2 1 3 4 2 3 4 3 4 6 9 15 23 28 29 28 26 25 24 23 23 22 21 19 17 15 13 12 10 9 8 7 6 5 4 4 4 4 4 5 4 4 5 5 6 6 6 6 7 7 8 8 9 10 11 12 13 14 15 16 17 18 19
2 5 6 2 1 7 7 4 6 7 2 2 2 4 2 4 4 1 3 5 3 2 3 2 3 4 4 1 3 3 2 1 2 6 14 21 24 26 27 27 27 26 25 24 23 21 19 17 15 13 12 10 9 7 6 5 5 3 2 2 2 2 3 2 2 3 3 4 4 5 5 6 6 7 8 8 9 10 11 12 13 14 15 16 17 18
2 4 5 2 2 3 3 3 4 3 3 2 2 3 4 3 6 3 2 1 3 1 3 2 3 4 1 2 2 2 2 2 1 5 14 21 24 26 28 30 30 29 27 26 24 22 20 18 16 14 12 10 9 7 6 5 5 4 3 2 1 2 2 2 1 1 1 1 2 2 3 4 4 5 6 7 9 10 11 12 13 14 15 15 16 17
4 3 4 1 1 1 2 5 5 4 4 5 3 5 3 2 4 3 2 3 3 3 4 1 4 4 1 2 2 2 2 4 3 6 11 17 22 26 30 33 33 30 28 26 24 23 20 18 17 15 13 11 9 8 7 6 6 5 4 4 4 3 3 3 2 1 1 0 1 2 2 3 4 5 7 8 9 10 11 12 13 14 15 16 16 17
4 1 5 0 2 1 2 5 4 4 4 4 3 3 3 3 2 2 2 2 1 3 4 2 3 4 4 4 2 4 7 8 7 6 8 14 22 28 33 35 33 30 28 27 26 24 22 20 17 15 13 12 10 9 8 7 7 6 6 6 5 4 4 4 3 2 2 2 2 2 3 4 5 6 7 9 10 11 12 13 14 15 16 17 17 18
3 2 3 1 1 1 2 2 4 1 2 3 2 1 2 2 3 2 2 3 2 2 3 4 3 3 5 6 7 10 11 10 10 9 10 17 26 32 34 35 34 32 30 29 28 26 23 20 18 15 13 12 11 10 9 9 9 8 8 7 7 6 6 5 4 3 3 2 2 3 4 5 7 8 9 10 11 12 13 14 15 15 16 17 17 18
3 2 3 2 2 1 2 2 5 6 3 3 3 3 2 1 2 1 1 2 3 3 2 3 5 5 4 3 8 9 8 9 12 11 12 20 29 32 33 34 35 34 33 31 29 27 24 21 18 17 15 14 13 12 11 11 10 10 9 9 8 7 6 5 4 4 3 3 4 5 6 7 8 9 10 11 12 13 14 14 15 16 16 17 17 18
2 3 3 2 1 3 4 5 4 6 5 4 4 5 5 4 3 2 4 1 2 2 4 3 6 7 3 2 4 5 4 7 13 13 14 23 31 33 34 36 37 36 34 32 30 27 24 22 20 19 18 16 15 14 13 13 13 12 11 10 9 8 7 6 5 4 4 5 6 7 8 9 10 11 12 13 14 16 16 17 18 19 19 19 19 20
3 3 3 3 4 4 5 3 3 5 4 3 2 3 4 3 4 4 6 3 1 1 2 3 3 5 3 2 3 4 6 8 15 19 18 24 32 34 36 37 37 37 35 32 30 28 26 24 22 21 19 17 16 15 15 15 14 13 12 12 11 10 8 7 6 6 6 7 7 8 9 11 12 14 16 17 18 19 19 20 21 22 22 22 22 23
3 3 2 1 3 2 3 2 0 1 2 2 3 2 4 3 2 3 4 2 2 4 2 1 4 4 1 1 2 4 6 7 15 23 22 23 29 33 35 38 40 39 36 33 31 28 27 25 24 23 21 19 17 17 17 16 16 15 15 14 12 10 9 8 7 7 7 8 9 11 12 13 15 16 18 19 20 20 21 22 23 23 24 24 24 25
6 2 3 2 2 3 2 1 1 1 1 3 3 2 3 3 4 2 1 2 2 5 4 2 6 5 1 1 2 3 0 4 11 20 22 21 24 29 35 39 40 38 35 33 31 29 28 27 26 25 23 21 19 18 18 18 18 18 16 14 13 11 9 8 8 8 9 10 11 13 14 15 16 17 19 20 21 22 22 23 24 25 25 25 25 26
7 2 4 6 5 6 5 3 4 3 2 3 3 4 5 6 7 3 2 3 4 4 6 5 8 4 3 1 1 3 1 3 8 14 17 18 21 27 34 38 37 35 34 33 32 31 30 28 28 27 25 22 20 18 18 19 20 19 16 15 13 12 10 8 8 9 10 12 13 14 15 16 18 19 21 22 23 24 25 26 26 27 27 27 27 27
3 1 5 7 9 9 6 3 2 4 4 4 4 6 7 8 9 5 2 4 5 3 5 9 6 2 3 3 2 2 3 6 7 12 17 20 22 26 31 34 34 34 35 35 33 33 31 30 30 28 26 23 20 19 19 21 20 18 17 15 14 12 10 9 9 10 12 13 15 16 17 18 20 22 23 24 25 26 27 29 29 30 29 29 28 29
3 2 6 7 9 6 3 3 2 3 4 6 6 8 9 9 9 9 8 7 4 4 9 8 4 3 7 6 6 7 7 6 7 13 21 24 23 23 25 29 32 35 36 35 33 32 32 31 31 28 27 24 21 20 21 21 20 19 17 16 13 11 10 10 11 12 14 15 16 18 19 21 22 23 25 26 27 29 30 31 32 32 31 30 30 31
4 4 6 5 8 9 2 4 5 4 4 5 7 11 13 12 12 12 12 11 8 8 12 6 7 8 9 5 7 10 10 10 13 18 21 21 19 19 21 26 31 35 35 34 33 33 34 33 31 29 27 26 23 22 22 23 22 20 18 16 14 12 11 11 12 14 16 17 18 19 21 22 23 24 26 28 29 31 32 33 33 33 31 31 31 33
3 4 4 5 8 9 3 3 4 6 5 5 8 13 12 11 11 11 13 11 9 10 10 2 4 9 6 5 7 9 9 11 14 15 15 15 16 17 19 24 28 31 32 31 31 32 34 34 32 30 29 27 24 24 24 25 23 21 19 16 14 12 12 13 15 16 17 19 20 21 21 21 23 25 27 28 30 31 32 33 33 32 31 31 33 35
3 2 2 4 4 5 1 2 2 4 5 5 12 13 7 5 6 9 10 5 3 7 8 4 7 11 5 7 8 8 7 9 12 14 14 14 14 15 17 21 23 25 25 24 25 27 29 30 30 30 31 29 26 25 26 26 24 21 19 17 15 13 13 15 17 18 19 20 21 20 20 20 23 25 27 28 30 31 32 32 31 31 31 32 34 35
4 2 2 3 4 4 2 4 3 2 1 6 16 13 7 6 7 7 6 6 7 9 9 7 9 10 3 7 7 9 10 11 14 16 16 16 16 15 17 19 21 22 21 22 23 24 25 26 28 30 31 30 27 27 27 27 25 23 20 17 15 15 16 18 19 20 21 20 20 19 19 21 23 25 27 28 29 30 31 31 30 30 31 34 35 35
5 4 2 4 5 2 0 4 5 3 1 8 13 10 11 11 7 2 3 8 10 8 6 7 9 6 2 5 5 8 9 11 14 17 18 20 20 18 20 22 22 22 22 22 22 23 24 25 25 26 28 29 28 28 27 27 25 23 21 18 17 17 19 20 21 21 20 19 19 19 20 22 24 26 27 28 29 30 30 30 30 31 33 34 35 35
5 6 4 4 4 1 1 3 5 3 6 7 3 5 12 15 12 9 10 12 9 7 6 7 4 0 4 6 8 9 9 11 16 19 20 21 20 19 20 20 19 19 19 20 21 21 21 21 20 21 25 27 27 26 26 25 24 22 21 20 20 21 21 22 21 21 20 19 19 20 21 23 25 26 28 29 29 30 30 30 30 32 33 34 34 34
5 5 3 2 2 2 2 4 4 6 7 3 4 1 5 9 12 12 11 9 8 9 9 7 5 4 8 13 14 13 12 13 15 18 17 16 16 15 15 15 15 16 18 18 18 18 17 17 18 20 23 25 25 25 25 25 24 23 23 23 23 24 23 22 21 20 20 20 21 22 23 25 26 27 29 29 30 30 30 30 31 32 33 34 34 34
6 5 1 2 2 2 3 5 6 4 2 1 4 5 2 4 4 4 4 7 9 10 9 8 9 11 15 18 16 13 12 12 13 16 16 13 13 13 12 13 13 13 14 14 14 15 15 16 16 17 20 23 24 25 25 25 25 25 25 26 26 25 24 22 21 21 21 22 23 23 24 26 27 28 29 30 30 30 30 30 31 32 33 33 33 33
6 5 2 2 3 2 3 6 4 4 4 3 1 2 4 5 5 5 3 8 8 8 9 9 9 13 16 17 14 10 8 7 9 15 17 14 14 14 12 12 11 10 12 12 13 14 13 13 14 15 18 20 21 22 24 25 26 27 27 28 28 26 23 22 22 23 23 24 24 25 25 26 27 29 30 30 30 30 30 31 32 32 33 33 33 33
2 4 5 5 3 3 3 3 2 3 7 6 4 4 5 7 7 7 4 6 6 7 15 13 10 12 12 10 8 5 2 2 5 12 15 13 12 12 10 10 10 10 12 13 14 14 14 14 15 16 17 18 19 20 21 23 25 26 28 28 27 25 24 24 24 25 25 26 26 25 26 27 28 29 30 30 30 30 30 31 31 32 32 32 33 33
3 0 3 3 2 3 3 3 4 5 6 2 3 2 3 10 11 8 2 6 5 10 19 16 11 12 12 11 10 7 4 1 4 13 14 8 6 8 9 9 10 11 13 14 15 15 15 16 17 18 18 18 18 19 20 22 24 26 28 28 27 26 26 26 26 27 27 27 27 26 26 27 28 30 30 31 31 30 30 31 31 32 31 31 32 32
2 2 1 3 3 4 4 3 3 4 4 2 4 3 6 12 13 8 3 8 5 10 18 16 13 14 13 12 11 8 5 7 8 12 10 4 4 7 9 10 12 13 14 15 16 17 18 18 19 18 18 18 17 19 20 22 24 26 27 27 27 28 28 27 28 28 28 28 27 27 27 27 29 30 31 31 31 30 30 31 31 31 31 31 31 31
0 1 1 3 4 6 7 5 3 4 4 3 6 11 13 11 8 2 6 6 7 12 16 16 15 15 14 15 15 12 13 16 14 12 7 4 6 9 10 12 14 14 15 16 17 19 20 20 19 18 18 17 18 19 21 23 25 26 26 27 28 28 28 28 29 29 29 29 27 27 27 28 29 30 31 31 31 31 31 31 31 31 30 30 30 31
2 0 1 2 3 4 5 4 3 5 4 6 8 13 15 8 1 5 5 7 13 14 15 16 16 14 15 18 19 18 18 17 16 14 9 7 9 10 11 14 15 15 16 16 18 20 21 21 20 19 19 18 18 19 21 24 25 25 26 27 27 27 28 29 30 30 29 29 27 27 27 27 28 30 31 31 31 31 31 31 30 30 30 29 30 31
4 3 2 3 3 2 2 3 4 6 4 17 16 7 6 5 3 5 9 11 14 13 12 16 16 14 16 19 20 21 19 16 16 16 13 11 11 12 14 16 16 16 17 16 18 20 22 23 22 21 20 19 18 20 23 25 25 26 26 26 26 26 28 30 30 30 30 28 27 27 27 27 29 30 31 30 30 31 31 30 29 29 29 29 30 31
3 4 3 4 3 4 4 6 5 2 9 26 21 6 10 15 8 6 9 12 13 13 12 15 16 16 18 19 19 20 19 17 17 17 16 15 14 14 16 18 18 18 17 17 18 21 23 25 24 23 22 20 20 21 24 25 26 26 26 26 26 27 29 30 30 31 30 28 27 27 27 28 29 30 30 30 30 31 30 29 29 28 28 28 29 30
3 3 5 4 3 5 5 6 3 3 14 29 22 9 14 21 17 10 9 10 13 14 14 15 15 16 17 19 19 19 18 17 17 17 18 18 17 17 17 18 18 19 19 18 18 21 24 27 27 26 25 23 23 24 25 26 27 27 26 26 26 28 30 30 31 31 29 28 28 28 28 29 30 30 29 29 30 30 29 29 29 28 27 27 28 30
2 2 4 2 2 4 4 4 4 4 13 25 23 14 12 16 18 17 15 14 14 15 15 15 16 16 16 18 19 18 16 15 16 17 19 20 20 21 20 19 19 19 20 21 21 22 25 28 29 30 29 28 27 26 27 28 29 28 26 26 27 29 30 31 32 31 29 29 29 29 29 30 29 29 29 29 30 29 29 28 28 28 27 27 28 29
2 4 4 1 2 4 3 3 5 5 12 22 23 19 16 15 17 20 20 20 19 18 18 18 19 18 17 16 15 15 15 16 17 19 20 21 22 22 22 22 21 20 21 22 22 23 26 29 32 33 33 32 31 30 29 31 30 28 27 27 28 30 30 31 32 32 30 29 29 29 30 30 30 29 29 29 29 28 28 27 27 27 27 27 27 29
2 5 4 3 4 3 2 2 3 3 10 19 22 21 20 19 19 20 21 21 20 20 21 21 20 20 19 17 16 17 18 19 20 22 23 23 23 23 23 23 23 22 22 22 23 24 27 29 32 34 35 35 34 33 33 33 32 29 27 27 29 30 31 32 32 32 30 29 29 29 29 30 30 29 29 28 28 27 27 26 26 26 26 26 27 28
3 5 4 2 3 3 1 2 2 1 3 13 21 23 23 21 21 22 21 22 22 22 23 22 22 22 21 21 21 21 21 22 23 24 23 23 23 24 24 23 23 23 23 22 24 25 27 28 30 33 35 37 37 37 36 36 33 30 27 28 29 30 31 32 33 32 30 30 29 29 29 30 29 29 29 28 28 27 26 25 25 26 26 24 25 27
5 4 3 3 3 4 2 6 8 3 3 12 21 25 24 22 22 23 23 23 24 24 25 24 23 22 23 23 24 23 23 26 26 25 23 24 26 27 26 24 23 22 21 22 23 25 26 26 27 29 31 35 37 39 39 38 34 31 29 29 29 31 32 33 33 32 31 30 29 29 29 30 29 29 29 28 28 27 26 24 23 24 26 25 25 25
10 9 7 5 5 4 6 14 19 14 10 15 20 22 22 22 24 26 26 25 25 24 24 24 24 23 23 24 25 25 26 28 28 26 25 27 28 28 26 23 22 21 20 21 22 24 25 25 27 28 29 30 32 35 38 38 35 32 30 30 30 32 33 33 33 32 31 30 29 29 29 30 29 29 29 28 28 28 27 25 22 21 22 25 26 25
Wind_Direction
157 145 190 221 205 194 204 202 203 177 135 141 137 142 187 219 260 252 255 280 164 161 269 222 213 256 265 349 11 57 87 84 92 95 93 96 96 93 90 89 87 86 87 90 100 105 101 96 90 88 86 85 85 83 83 85 87 88 92 95 92 93 97 98 98 93 88 87 91 98 94 93 103 111 39 25 39 21 339 304 303 302 303 308 305 298
133 173 227 231 201 192 208 203 191 145 129 121 140 188 242 223 253 258 246 299 319 175 260 219 230 263 244 40 3 59 86 67 83 102 99 101 98 94 93 91 91 92 96 103 106 105 102 99 97 95 95 94 90 88 87 86 86 88 89 89 89 93 97 95 94 94 92 89 81 82 89 83 80 125 223 313 338 333 308 285 284 288 286 283 283 285
115 218 242 230 155 137 125 169 182 198 192 172 136 184 266 234 270 286 286 338 17 173 264 323 301 276 259 75 31 54 78 74 91 113 108 108 104 100 101 100 104 107 108 109 108 107 105 102 101 98 95 92 89 88 87 86 87 87 86 85 86 85 84 83 82 80 79 78 76 75 78 79 80 84 72 47 41 19 342 321 315 313 305 293 285 283
185 243 246 203 147 141 103 132 152 163 198 197 156 179 248 233 320 282 295 338 10 118 259 15 329 286 303 85 53 61 90 91 93 106 106 111 109 106 110 111 113 113 111 110 109 108 106 104 102 98 94 92 90 89 87 87 87 85 84 83 83 82 80 79 77 75 73 73 74 73 73 72 72 72 67 65 64 55 48 44 38 30 21 6 342 322
227 248 190 130 143 165 173 147 147 153 223 240 201 203 223 215 214 231 289 333 350 13 51 80 350 301 280 205 90 82 98 91 90 100 98 104 111 114 119 120 119 116 114 112 111 110 109 107 104 100 98 96 93 89 87 86 85 84 83 82 81 80 78 78 76 75 74 73 74 75 75 74 76 81 83 77 70 65 59 54 47 42 38 31 22 16
250 248 138 108 101 151 167 188 184 167 189 279 230 210 214 217 224 236 341 8 10 346 346 49 328 293 311 293 194 161 87 67 73 86 88 104 119 127 128 124 123 120 117 115 113 113 111 109 106 103 101 97 93 89 85 84 84 83 82 81 80 78 76 75 75 76 75 76 79 80 82 85 87 88 81 69 62 58 54 50 46 42 40 36 31 26
253 250 153 157 143 144 173 221 218 168 144 273 246 204 206 205 198 193 140 87 110 262 316 42 186 253 314 312 212 167 95 60 54 66 89 126 132 137 135 131 130 124 120 118 116 116 114 111 108 104 100 96 93 89 85 84 83 82 82 82 81 79 78 77 77 79 78 78 81 78 77 78 74 67 66 63 58 56 53 50 48 46 43 39 35 33
204 137 88 149 149 159 199 235 217 164 139 231 238 155 158 170 179 180 153 153 216 251 325 6 137 229 288 284 244 155 128 73 360 50 139 156 151 148 144 140 137 129 125 123 121 119 117 112 108 102 98 95 93 91 89 86 83 82 81 81 81 80 80 78 75 74 71 68 67 63 58 59 61 61 66 67 63 62 58 52 51 48 44 41 37 34
153 166 192 170 160 196 215 230 188 160 151 242 198 124 133 150 156 144 129 151 259 17 309 303 133 231 264 274 318 134 195 249 222 216 210 183 170 161 156 151 143 137 132 128 125 123 118 113 107 103 100 96 95 95 93 90 85 81 79 79 79 78 77 75 71 65 64 62 59 56 52 53 61 64 67 69 66 64 56 47 48 45 41 39 35 31
96 195 209 159 162 214 220 286 184 174 189 186 135 95 82 83 88 93 110 123 67 61 246 246 192 209 270 283 291 160 250 243 207 209 209 190 180 171 166 160 151 144 138 133 130 126 121 116 111 107 104 102 100 98 94 91 87 82 78 76 75 75 75 73 69 61 62 64 58 57 56 57 65 69 71 70 63 59 52 43 42 39 35 32 28 27
322 110 202 155 179 187 139 60 59 178 153 137 115 66 52 37 41 44 58 94 83 265 243 232 195 182 263 278 229 189 232 203 168 182 201 193 187 180 174 167 159 152 145 139 135 130 126 121 118 114 112 109 104 100 97 93 90 85 80 74 72 76 76 77 76 68 67 69 60 60 61 61 67 71 69 57 48 48 39 32 34 32 27 24 21 19
330 268 250 209 179 134 103 64 34 37 111 119 95 79 75 356 14 26 357 49 145 251 256 249 177 159 209 257 237 210 227 192 169 179 184 188 191 185 179 172 166 158 151 146 141 136 133 129 126 123 119 113 107 104 101 97 93 88 81 70 67 74 78 78 80 72 65 64 56 55 55 52 57 56 39 25 26 28 23 23 25 20 16 14 11 8
293 240 262 191 186 161 117 72 42 20 42 89 95 104 101 339 1 353 306 270 225 246 262 248 154 176 225 244 225 196 200 212 214 201 185 185 187 185 181 176 171 165 158 152 147 143 141 138 135 133 127 119 114 111 107 102 97 90 82 71 61 69 78 77 76 69 56 51 48 46 41 38 38 27 18 16 15 15 14 13 11 6 4 2 0 360
279 290 263 131 220 194 163 141 156 210 168 151 143 132 130 120 119 264 263 270 266 256 266 270 161 221 262 261 216 192 204 236 242 225 198 190 186 183 181 178 174 170 165 160 155 151 149 146 144 140 134 129 125 123 119 112 105 96 87 76 57 65 79 79 74 64 48 44 44 39 33 32 26 16 12 10 7 8 6 3 1 358 357 357 356 356
217 290 211 181 203 183 178 174 158 144 148 180 160 133 144 156 174 223 219 210 249 271 298 299 199 192 210 241 235 232 262 265 248 229 204 195 189 183 181 182 180 176 171 167 163 159 156 153 151 149 144 142 139 134 132 125 116 110 98 80 56 61 77 78 67 51 35 35 36 31 27 22 14 10 7 4 2 1 357 355 353 350 349 348 348 348
179 265 248 256 112 157 173 178 126 113 131 208 127 114 168 187 158 176 198 177 180 290 296 237 225 220 192 223 291 284 298 308 242 206 188 190 190 185 185 187 184 180 176 174 170 165 163 161 159 159 156 155 154 148 148 145 134 130 120 95 69 68 86 86 66 41 24 28 24 17 13 7 4 1 356 354 353 349 348 347 343 340 339 337 336 335
139 272 279 351 43 119 157 164 118 124 181 162 123 174 219 183 119 112 247 52 82 253 268 197 240 289 327 275 308 9 343 348 77 162 173 181 184 186 190 190 187 185 182 179 174 170 169 169 167 167 167 166 166 164 163 162 157 157 165 167 173 175 160 152 142 77 34 29 8 350 346 341 339 338 336 339 340 340 340 337 335 333 330 328 326 324
153 259 286 115 125 2 98 122 87 64 124 126 179 210 204 132 96 106 232 347 42 245 273 220 226 257 208 244 312 28 280 257 210 177 173 179 184 190 195 194 191 188 186 183 179 177 177 176 175 175 174 175 176 178 178 178 179 182 191 197 195 193 185 180 183 176 178 214 290 295 305 318 326 332 335 336 335 334 332 329 327 326 325 324 323 322
148 223 291 37 156 292 53 112 92 31 75 125 184 183 117 149 172 103 163 226 229 246 281 298 258 240 198 201 208 205 223 218 198 188 183 186 191 196 199 197 194 191 190 189 185 183 183 182 182 180 179 183 185 189 191 192 196 199 203 204 200 201 196 192 196 191 203 232 261 293 312 326 333 337 334 332 330 327 324 322 322 323 322 322 322 321
126 175 267 307 250 233 44 115 172 208 51 82 110 112 81 160 178 158 153 171 182 221 274 302 305 263 225 200 177 194 210 194 178 186 197 199 198 199 200 198 195 194 193 192 189 188 188 187 187 186 188 193 195 197 200 202 206 206 208 207 205 207 205 203 206 205 220 246 270 299 317 324 326 327 325 324 324 323 322 323 322 322 321 320 319 319
107 179 232 298 312 181 170 205 186 182 170 133 145 177 199 154 137 193 201 122 134 175 214 271 282 269 251 200 180 198 210 186 182 187 194 201 202 202 202 198 196 196 195 193 192 191 191 191 191 191 195 200 201 204 206 207 209 209 208 209 208 210 210 206 208 212 232 261 286 299 307 312 315 317 320 323 325 325 327 327 325 324 322 320 319 318
157 173 178 191 200 183 226 237 188 180 178 169 188 196 191 172 133 187 242 193 120 177 184 200 264 271 251 200 190 207 214 192 192 189 189 200 203 203 202 199 199 198 196 195 195 195 195 195 196 197 201 204 207 209 210 209 209 209 209 211 211 212 211 211 219 235 260 276 287 297 305 311 315 319 323 326 328 328 328 327 327 326 324 323 322 320
137 119 135 197 210 209 242 253 188 190 167 150 216 206 175 170 144 178 225 225 146 211 163 144 258 277 254 220 232 240 244 218 198 192 193 201 203 203 202 201 202 201 199 199 199 199 199 200 201 203 207 210 211 212 212 210 210 211 213 214 214 215 218 225 238 250 264 277 291 307 318 322 322 323 324 325 325 325 325 326 326 325 324 323 322 322
133 122 133 257 300 309 311 333 40 161 130 170 237 176 162 192 167 179 214 170 161 212 163 126 249 266 279 239 268 269 257 228 201 196 199 202 202 203 203 203 204 204 204 205 205 204 205 205 206 209 212 214 214 214 213 212 213 215 216 216 218 223 227 233 243 256 273 291 307 318 321 321 320 319 320 321 322 323 323 323 324 323 323 321 320 320
174 158 137 161 315 333 335 332 250 243 193 206 219 174 183 175 113 90 125 114 213 215 164 186 247 249 285 344 25 13 303 200 203 202 203 204 204 205 206 206 207 208 209 210 210 210 210 210 211 214 217 218 217 217 215 214 216 217 218 220 223 226 231 240 256 276 293 304 311 313 313 314 315 317 319 321 322 322 321 321 321 321 320 318 317 317
168 173 156 173 213 226 221 211 205 204 186 195 197 187 199 184 163 164 157 178 233 195 151 217 248 256 316 318 59 40 75 196 212 207 208 211 210 210 210 211 212 212 212 213 214 215 215 216 218 220 220 220 220 220 219 218 218 219 220 222 225 229 238 255 274 290 300 303 303 305 308 313 316 319 320 320 320 320 319 319 319 319 317 316 314 313
134 242 196 202 221 220 208 207 189 132 143 188 199 189 199 201 189 182 168 203 220 177 190 231 232 228 280 250 224 243 208 210 212 201 207 214 215 215 215 214 214 213 215 217 219 220 219 221 223 223 223 224 224 224 222 220 220 220 221 222 227 237 250 266 281 290 295 296 300 305 311 315 317 318 318 318 317 317 316 316 316 316 315 313 311 311
90 225 216 216 236 234 157 161 186 127 162 199 207 215 224 216 194 195 213 214 175 176 237 236 163 185 240 217 206 223 212 214 216 203 206 211 214 216 216 215 215 215 218 222 224 224 224 226 227 227 226 228 228 225 222 220 219 218 220 225 232 244 257 270 280 286 291 295 301 306 310 312 313 314 314 313 313 312 312 312 312 312 311 310 309 311
121 223 214 190 241 254 194 160 178 166 197 215 216 226 229 218 202 202 218 219 187 209 248 237 156 208 238 198 195 215 209 206 205 202 205 207 210 214 214 214 215 218 222 227 228 229 230 232 233 232 232 232 230 227 223 220 218 216 219 228 237 247 259 269 277 283 287 292 297 300 302 305 307 309 309 309 309 308 308 308 308 309 308 308 309 311
138 229 207 173 236 254 226 163 174 182 204 222 228 230 225 216 206 201 215 223 211 233 262 267 197 234 236 175 197 218 218 217 215 212 212 209 210 214 216 218 221 223 227 232 235 237 238 239 240 240 238 235 231 228 224 220 218 218 222 231 240 249 259 267 274 280 283 286 289 292 296 301 304 306 306 306 306 305 305 305 306 305 305 307 309 311
174 217 153 147 225 254 178 121 147 197 206 224 241 240 210 182 202 207 215 211 196 249 259 247 249 258 227 167 194 223 222 221 227 230 228 224 222 225 228 229 228 228 233 240 245 248 249 249 249 246 242 237 234 231 226 222 219 220 225 232 241 250 260 267 272 276 278 282 286 289 294 300 304 305 305 305 305 304 304 303 303 303 304 307 309 310
186 210 68 126 208 239 175 147 136 81 31 261 255 244 184 176 210 202 198 195 197 225 236 232 248 260 218 155 188 228 225 217 225 231 235 238 234 230 234 236 236 239 245 251 254 255 256 255 255 252 246 239 234 230 226 222 220 222 227 235 244 253 260 265 269 273 276 281 284 287 291 297 304 306 305 305 305 304 303 301 300 302 304 307 309 310
168 163 130 175 203 233 164 153 137 102 352 264 255 225 187 207 223 159 190 223 212 201 205 224 240 247 187 148 186 231 226 219 230 236 241 245 243 241 244 246 249 253 254 254 253 251 251 252 254 254 250 242 234 230 226 223 222 226 231 239 248 254 259 264 268 272 275 279 281 282 287 296 304 308 307 306 306 304 302 301 301 303 305 307 309 310
173 174 184 190 186 191 170 121 120 164 230 249 251 173 188 207 209 201 222 227 210 192 210 236 260 169 148 180 209 227 224 225 238 244 247 251 250 250 252 253 254 254 251 248 245 244 245 248 249 249 245 239 233 229 225 222 224 229 234 242 249 253 259 264 267 271 274 277 279 278 284 296 305 308 308 308 307 304 302 301 301 304 306 308 309 311
174 185 195 156 133 147 125 122 168 220 234 263 3 8 200 197 194 205 230 239 219 214 224 242 263 245 225 226 229 235 242 244 248 251 252 252 249 248 251 254 253 248 244 241 239 241 243 243 242 240 235 231 229 227 224 222 225 230 236 244 250 254 258 262 266 271 274 276 276 276 284 297 306 309 309 309 307 304 301 301 302 305 307 308 310 311
166 173 174 118 135 128 128 181 213 251 288 355 352 342 40 96 129 180 265 267 235 219 214 217 233 242 243 244 244 248 255 259 262 261 256 253 255 257 258 260 255 245 242 243 246 252 253 248 244 237 228 227 228 227 225 226 231 236 241 247 250 253 257 262 267 272 274 273 273 277 287 299 305 308 309 309 306 303 300 301 303 306 307 308 310 311
166 160 147 185 187 143 169 213 243 333 307 248 275 262 173 146 146 154 216 257 240 205 187 191 223 240 243 247 250 249 255 279 290 274 264 261 263 262 259 258 253 247 251 256 257 258 255 247 241 233 228 229 231 231 232 235 239 242 245 248 250 251 256 264 270 272 272 272 272 278 289 299 305 307 308 307 305 301 300 302 304 306 307 308 310 311
189 174 177 205 213 120 147 229 268 282 257 233 205 217 184 165 162 146 176 268 274 196 185 187 212 232 234 239 232 213 224 335 307 272 265 262 257 253 250 251 253 255 260 262 259 253 245 234 229 228 230 232 233 235 237 240 243 245 247 247 249 253 260 267 271 271 270 270 273 281 292 299 304 306 307 306 303 300 300 303 305 307 307 308 309 311
1 360 164 190 198 131 166 223 212 229 258 231 181 218 140 151 144 108 88 277 268 194 189 189 203 222 226 220 194 158 125 132 253 267 267 257 239 242 249 255 260 263 265 265 260 251 242 234 230 229 229 229 231 235 238 241 244 246 248 249 252 258 265 269 269 268 268 270 275 284 293 300 303 305 306 305 302 300 302 304 306 306 307 307 308 310
15 9 114 186 194 194 211 228 230 248 268 174 167 176 149 148 131 92 316 273 245 192 189 187 199 216 221 208 179 151 161 196 236 272 273 235 225 250 258 265 270 271 270 268 262 251 242 237 234 232 230 231 235 241 244 246 247 248 250 253 257 262 267 267 266 266 267 270 276 286 294 299 302 304 305 303 301 301 303 305 306 305 305 306 307 309
31 336 227 209 215 222 224 233 273 262 235 195 166 155 142 125 106 131 252 235 184 186 189 186 197 211 210 195 180 186 218 229 245 265 261 237 266 271 267 270 276 278 275 268 259 251 245 240 235 231 233 238 242 247 249 248 249 250 253 256 261 265 266 264 264 265 267 271 278 287 294 298 301 303 303 302 300 301 303 305 304 303 304 305 306 309
163 143 245 215 210 224 231 238 277 269 214 153 146 150 143 128 204 229 202 151 156 174 184 187 197 210 212 206 203 215 234 244 248 250 246 260 282 284 274 270 270 272 274 269 258 248 241 237 233 232 236 241 247 253 253 250 250 252 255 259 264 266 265 263 264 265 267 272 279 288 293 297 301 302 302 300 300 300 302 303 302 301 303 304 306 309
170 151 195 219 181 157 243 217 235 278 183 142 135 136 166 188 210 172 155 155 163 172 184 194 203 213 216 218 221 227 235 241 242 244 245 255 273 280 274 267 264 265 270 272 264 252 240 235 235 238 241 246 255 260 256 251 251 254 258 264 268 267 264 264 265 266 268 273 282 289 293 297 300 301 300 299 299 300 301 301 300 300 302 304 306 308
190 163 187 229 184 151 199 213 209 283 161 156 153 163 208 207 204 154 158 177 183 186 195 203 212 218 218 220 223 226 233 241 248 251 250 253 266 277 275 271 267 266 268 271 268 257 245 241 243 244 246 250 257 261 256 253 254 256 261 267 269 266 266 267 267 267 270 276 284 291 294 297 299 299 298 297 298 299 300 300 299 299 301 304 306 307
226 181 174 208 203 171 196 216 194 125 164 174 179 193 203 210 219 212 196 200 202 205 209 214 223 226 223 224 226 228 237 249 258 261 259 261 271 278 277 275 272 269 270 271 266 257 250 249 249 249 250 253 256 258 256 253 254 256 262 267 267 266 267 268 268 269 272 278 286 291 292 295 297 297 296 297 298 299 300 299 298 299 301 303 305 306
248 141 143 150 257 253 243 199 161 146 175 184 192 205 210 217 225 223 221 225 226 227 229 236 247 247 236 231 231 234 245 258 268 272 271 274 279 280 279 276 273 272 271 267 263 259 255 253 252 251 251 254 254 256 255 253 253 256 261 265 265 266 267 268 269 271 274 280 286 289 291 294 296 296 295 296 297 298 298 298 298 299 301 303 304 305
261 167 166 172 244 258 261 181 156 167 185 187 194 207 216 222 227 229 231 235 240 245 248 256 264 260 249 241 238 244 260 270 274 278 279 280 281 282 281 278 274 273 272 269 268 265 259 256 254 253 253 254 255 255 256 254 253 254 259 263 264 266 268 269 270 272 274 280 285 287 290 294 294 294 295 295 296 297 296 296 297 298 300 303 303 304
227 170 183 235 224 206 212 197 177 184 197 197 201 211 219 224 228 230 233 237 243 250 255 260 264 259 254 254 251 256 267 272 272 277 280 281 281 281 280 278 274 272 272 271 270 267 263 260 258 257 257 257 257 257 257 255 252 252 257 262 265 267 269 270 270 272 275 280 284 286 289 292 292 292 293 294 295 294 294 294 295 296 299 301 302 302
148 167 187 208 213 202 126 140 140 49 247 218 212 215 223 230 233 234 238 242 247 253 258 263 266 265 263 261 257 257 264 270 274 279 280 278 279 279 279 278 276 274 271 271 271 270 269 267 264 262 261 260 259 258 258 256 252 251 255 261 264 266 268 268 269 271 275 280 283 286 289 290 291 292 293 293 294 293 293 294 295 296 298 299 299 301
147 196 182 128 213 243 200 168 172 171 261 231 221 222 229 235 237 239 243 250 256 261 265 267 268 268 267 264 261 261 267 274 278 280 278 277 277 277 278 278 275 272 270 270 271 271 270 270 270 268 265 262 260 259 258 255 251 250 254 260 263 266 267 267 268 270 275 279 283 286 288 289 289 291 292 293 294 293 292 293 294 297 300 301 301 302
193 212 197 177 216 225 179 188 198 207 232 242 240 241 242 241 242 243 248 256 263 268 272 271 269 268 268 267 268 269 272 277 278 277 277 278 278 277 277 275 271 271 272 272 271 271 271 272 271 269 267 264 262 260 258 255 250 249 254 258 262 264 264 265 267 270 274 278 282 284 286 287 287 289 291 292 293 294 295 295 293 294 298 300 301 302